#timestamp,LO_Frequency,Hit,StdDev 
1640984415.6,286047000.8,N
1640984435.4,286046996.5,Y
1640984455.2,286046998.6,P
1640984475.1,286046998.0,P
1640984476.0,286046998.0,N
1640984495.8,286046997.3,Y
1640984515.7,286047000.7,P
1640984535.5,286047000.9,N
1640984555.3,286047001.1,N
1640984575.2,286047002.7,N
1640984595.0,286046998.4,N
1640984595.9,286046998.4,N
1640984615.8,286046996.7,N
1640984635.6,286046996.5,N
1640984655.4,286046995.1,N
1640984675.3,286046996.8,N
1640984695.1,286046997.4,N
1640984715.9,286046999.5,N
1640984735.7,286046998.2,N
1640984755.5,286046998.5,N
1640984775.4,286046998.1,N
1640984795.2,286047000.9,N
1640984815.0,286046999.9,N
1640984815.9,286046999.9,N
1640984835.8,286047000.3,N
1640984855.6,286046999.9,N
1640984875.4,286047001.4,N
1640984895.3,286047002.8,N
1640984915.1,286047002.8,N
1640984935.9,286047002.6,N
1640984955.7,286047003.9,N
1640984975.5,286047003.7,N
1640984995.4,286047004.4,N
1640985015.2,286047002.4,N
1640985035.0,286047003.2,N
1640985036.0,286047003.2,N
1640985055.8,286047001.3,N
1640985105.7,286047002.5,E
1640985115.6,286047000.2,N
1640985135.4,286046998.1,P
1640985155.3,286046998.7,N
1640985175.1,286046998.3,N
1640985176.0,286046998.3,N
1640985195.8,286046999.0,N
1640985215.7,286046999.4,N
1640985235.5,286046998.6,N
1640985255.3,286046998.1,N
1640985275.2,286047002.3,Y
1640985295.0,286047003.6,P
1640985295.9,286047003.6,N
1640985315.8,286047004.2,N
1640985335.6,286047002.0,N
1640985355.4,286047004.0,N
1640985375.3,286047004.0,N
1640985395.1,286047004.4,N
1640985415.9,286047002.6,N
1640985435.7,286047001.8,N
1640985455.5,286047004.0,N
1640985475.4,286047005.2,Y
1640985495.2,286047000.3,P
1640985515.1,286047000.8,N
1640985516.0,286047000.8,N
1640985535.8,286046998.6,N
1640985555.6,286046996.8,N
1640985575.5,286046996.5,N
1640985595.3,286046996.6,N
1640985615.2,286046996.7,N
1640985635.9,286046997.0,N
1640985655.7,286046999.5,N
1640985675.6,286046996.8,N
1640985695.4,286046997.4,N
1640985715.2,286046997.3,N
1640985735.1,286046996.5,N
1640985736.0,286046996.5,N
1640985755.8,286046999.4,N
1640985775.7,286046999.1,N
1640985795.5,286047000.7,N
1640985815.3,286047001.1,N
1640985835.2,286046997.0,N
1640985855.0,286046997.3,N
1640985855.9,286046997.3,N
1640985875.8,286046995.3,N
1640985895.6,286046997.9,N
1640985915.4,286046996.9,N
1640985935.3,286046996.7,N
1640985955.1,286046997.9,N
1640985975.8,286046997.2,N
1640985995.7,286046997.4,N
1640986015.5,286046995.6,N
1640986035.4,286046996.7,N
1640986055.2,286046995.7,N
1640986075.0,286046995.8,N
1640986075.9,286046995.8,Y
1640986095.8,286046998.0,P
1640986115.6,286046997.1,P
1640986135.5,286046996.8,P
1640986155.3,286046996.6,Y
1640986175.1,286046999.1,P
1640986195.9,286046996.5,P
1640986215.7,286046997.1,N
1640986235.5,286046997.3,N
1640986255.4,286046999.0,N
1640986275.2,286046996.5,Y
1640986295.1,286047000.1,P
1640986296.0,286047000.1,N
1640986315.8,286047002.5,N
1640986335.6,286046998.8,N
1640986355.5,286046998.6,N
1640986375.3,286046999.4,N
1640986395.1,286046998.4,N
1640986415.9,286046998.1,N
1640986435.7,286047002.2,N
1640986455.6,286046999.8,N
1640986475.4,286047000.5,N
1640986495.2,286047000.4,N
1640986515.1,286047000.7,N
1640986516.0,286047000.7,N
1640986535.8,286047002.5,N
1640986555.7,286047001.3,N
1640986575.5,286047002.1,N
1640986595.3,286047004.4,N
1640986615.2,286047001.7,N
1640986635.0,286047002.0,N
1640986635.9,286047002.0,N
1640986655.7,286047001.9,N
1640986675.6,286047001.6,N
1640986695.4,286047003.9,N
1640986715.3,286047001.6,N
1640986735.1,286047002.5,N
1640986736.0,286047002.5,N
1640986755.8,286047001.4,N
1640986805.7,286047001.6,E
1640986815.6,286047002.3,N
1640986835.5,286047000.1,P
1640986855.3,286047000.8,N
1640986875.1,286047002.4,N
1640986895.9,286047002.3,N
1640986915.7,286047002.8,N
1640986935.5,286047000.8,N
1640986955.4,286046999.9,N
1640986975.2,286047000.7,N
1640986995.1,286047000.5,N
1640986996.0,286047000.5,N
1640987015.8,286047000.7,N
1640987035.6,286046998.1,N
1640987055.5,286046998.1,N
1640987075.3,286047001.1,N
1640987095.1,286047000.6,N
1640987115.9,286046999.0,N
1640987135.7,286046998.4,N
1640987155.6,286046996.6,N
1640987175.4,286046999.3,N
1640987195.2,286046997.2,N
1640987215.1,286046997.8,N
1640987216.0,286046997.8,N
1640987235.8,286046995.2,N
1640987255.7,286046999.6,N
1640987275.5,286046999.2,N
1640987295.3,286046997.7,N
1640987315.2,286046996.8,N
1640987335.0,286046996.6,N
1640987335.9,286046996.6,N
1640987355.8,286046999.2,N
1640987375.6,286046997.4,N
1640987395.4,286046997.8,N
1640987415.3,286046997.6,N
1640987435.1,286046997.4,N
1640987455.8,286046997.3,N
1640987475.7,286046999.0,N
1640987495.5,286046997.7,N
1640987515.4,286046997.4,N
1640987535.2,286046996.6,N
1640987555.0,286046998.2,N
1640987555.9,286046998.2,N
1640987575.8,286046998.5,N
1640987595.6,286046999.0,N
1640987615.4,286046998.4,N
1640987635.3,286046998.8,N
1640987655.1,286046998.7,N
1640987675.9,286046996.7,Y
1640987695.7,286046998.5,P
1640987715.5,286047001.2,P
1640987735.4,286047000.3,N
1640987755.2,286046999.9,N
1640987775.0,286047000.2,N
1640987775.9,286047000.2,N
1640987795.8,286047000.7,N
1640987815.6,286047000.8,N
1640987835.5,286047001.0,N
1640987855.3,286047011.9,Y
1640987875.1,286046998.7,P
1640987895.9,286046999.9,N
1640987915.7,286047000.9,N
1640987935.5,286047000.3,N
1640987955.4,286047001.2,N
1640987975.2,286047001.1,N
1640987995.1,286047001.1,N
1640987996.0,286047001.1,N
